When you browse on this site, cookies collect data to enhance your experience and personalize the content and advertising you see.
Visit our Privacy Policy to learn more. By continuing to use the site, you agree to this use of cookies and data.
  • In Latvia
  • List of Countries
  • For 7 days
  • Water Temperature
  • Weather Map
  • Weather Widgets
  • user-avatar
    Login

    Hourly Weather Mbandaka

    Today, 30 May, Saturday

    Time Temperature Precipitation Wind Pressure Humidity
    00:00 +24°C° 4.6 mm 1 mps 731 mmHg 96%
    01:00 +24°C° 0 mm 1 mps 731 mmHg 96%
    02:00 +24°C° 7.5 mm 1 mps 731 mmHg 97%
    03:00 +24°C° 7.5 mm 2 mps 731 mmHg 97%
    04:00 +24°C° 7.5 mm 3 mps 731 mmHg 98%
    05:00 +24°C° 0.9 mm 2 mps 731 mmHg 97%
    06:00 +24°C° 0.9 mm 2 mps 731 mmHg 97%
    07:00 +24°C° 0 mm 1 mps 732 mmHg 98%
    08:00 +24°C° 0.1 mm 2 mps 732 mmHg 97%
    09:00 +24°C° 0.1 mm 2 mps 732 mmHg 96%
    10:00 +25°C° 0.1 mm 2 mps 732 mmHg 95%
    11:00 +25°C° 0 mm 1 mps 732 mmHg 93%
    12:00 +26°C° 0 mm 1 mps 731 mmHg 90%
    13:00 +26°C° 0 mm 1 mps 731 mmHg 88%
    14:00 +27°C° 0 mm 1 mps 730 mmHg 85%
    15:00 +25°C° 0 mm 0 mps 730 mmHg 83%
    16:00 +25°C° 0 mm 0 mps 729 mmHg 81%
    17:00 +25°C° 0 mm 0 mps 730 mmHg 83%
    18:00 +24°C° 0 mm 0 mps 730 mmHg 86%
    19:00 +23°C° 0 mm 0 mps 731 mmHg 89%
    20:00 +23°C° 0 mm 0 mps 731 mmHg 90%
    21:00 +22°C° 0 mm 0 mps 731 mmHg 92%
    22:00 +22°C° 0 mm 0 mps 731 mmHg 93%
    23:00 +22°C° 0 mm 0 mps 731 mmHg 92%

    Tomorrow, 31 May, Sunday

    Time Temperature Precipitation Wind Pressure Humidity
    00:00 +22°C° 0 mm 0 mps 731 mmHg 92%
    01:00 +24°C° 0 mm 1 mps 731 mmHg 92%
    02:00 +22°C° 0 mm 0 mps 731 mmHg 92%
    03:00 +21°C° 0 mm 0 mps 731 mmHg 93%
    04:00 +21°C° 0 mm 0 mps 731 mmHg 94%
    05:00 +22°C° 0.3 mm 0 mps 731 mmHg 93%
    06:00 +22°C° 0.3 mm 0 mps 732 mmHg 93%
    07:00 +24°C° 0.3 mm 1 mps 733 mmHg 92%
    08:00 +25°C° 0 mm 0 mps 733 mmHg 84%
    09:00 +27°C° 0 mm 0 mps 733 mmHg 75%
    10:00 +29°C° 0 mm 0 mps 733 mmHg 66%
    11:00 +29°C° 0.6 mm 0 mps 733 mmHg 67%
    12:00 +29°C° 0.6 mm 0 mps 732 mmHg 68%
    13:00 +31°C° 0.6 mm 1 mps 731 mmHg 69%
    14:00 +30°C° 0.3 mm 1 mps 731 mmHg 73%
    15:00 +27°C° 0.3 mm 0 mps 730 mmHg 77%
    16:00 +26°C° 0.3 mm 0 mps 730 mmHg 81%
    17:00 +27°C° 0 mm 1 mps 730 mmHg 84%
    18:00 +27°C° 0 mm 1 mps 731 mmHg 87%
    19:00 +26°C° 0 mm 1 mps 731 mmHg 89%
    20:00 +25°C° 0 mm 1 mps 731 mmHg 91%
    21:00 +25°C° 0 mm 1 mps 732 mmHg 92%
    22:00 +24°C° 0 mm 1 mps 732 mmHg 93%
    23:00 +25°C° 0 mm 1 mps 732 mmHg 91%

    Day after tomorrow, 1 June, Monday

    Time Temperature Precipitation Wind Pressure Humidity
    00:00 +23°C° 0 mm 0 mps 732 mmHg 90%
    01:00 +23°C° 0 mm 0 mps 732 mmHg 88%
    02:00 +25°C° 0.1 mm 1 mps 732 mmHg 90%
    03:00 +25°C° 0.1 mm 1 mps 732 mmHg 91%
    04:00 +24°C° 0.1 mm 1 mps 731 mmHg 93%
    05:00 +25°C° 0.1 mm 1 mps 732 mmHg 93%
    06:00 +23°C° 0.1 mm 0 mps 732 mmHg 93%
    07:00 +23°C° 0.1 mm 0 mps 733 mmHg 93%
    08:00 +25°C° 0.1 mm 0 mps 733 mmHg 83%
    09:00 +27°C° 0.1 mm 0 mps 733 mmHg 74%
    10:00 +29°C° 0.1 mm 0 mps 733 mmHg 65%
    11:00 +29°C° 0 mm 0 mps 733 mmHg 62%
    12:00 +30°C° 0 mm 0 mps 732 mmHg 60%
    13:00 +30°C° 0 mm 0 mps 731 mmHg 58%
    14:00 +30°C° 0.1 mm 0 mps 731 mmHg 57%
    15:00 +30°C° 0.1 mm 0 mps 730 mmHg 56%
    16:00 +30°C° 0.1 mm 0 mps 730 mmHg 55%
    17:00 +28°C° 0.3 mm 0 mps 730 mmHg 64%
    18:00 +26°C° 0.3 mm 0 mps 730 mmHg 73%
    19:00 +24°C° 0.3 mm 0 mps 731 mmHg 82%
    20:00 +24°C° 0.1 mm 0 mps 731 mmHg 83%
    21:00 +23°C° 0.1 mm 0 mps 731 mmHg 85%
    22:00 +23°C° 0.1 mm 0 mps 731 mmHg 86%
    23:00 +23°C° 0.2 mm 0 mps 731 mmHg 88%

    2 June, Tuesday

    Time Temperature Precipitation Wind Pressure Humidity
    00:00 +23°C° 0.2 mm 0 mps 731 mmHg 89%
    01:00 +22°C° 0.2 mm 0 mps 731 mmHg 90%
    02:00 +22°C° 0.3 mm 0 mps 731 mmHg 91%
    03:00 +22°C° 0.3 mm 0 mps 731 mmHg 92%
    04:00 +22°C° 0.3 mm 0 mps 731 mmHg 92%
    05:00 +22°C° 0.5 mm 0 mps 731 mmHg 93%
    06:00 +22°C° 0.5 mm 0 mps 732 mmHg 93%
    07:00 +23°C° 0.5 mm 0 mps 732 mmHg 93%
    08:00 +25°C° 0 mm 0 mps 732 mmHg 83%
    09:00 +29°C° 0 mm 1 mps 733 mmHg 73%
    10:00 +31°C° 0 mm 1 mps 733 mmHg 63%
    11:00 +33°C° 0 mm 1 mps 732 mmHg 59%
    12:00 +34°C° 0 mm 1 mps 731 mmHg 54%
    13:00 +35°C° 0 mm 1 mps 731 mmHg 50%
    14:00 +34°C° 0.1 mm 1 mps 730 mmHg 53%
    15:00 +33°C° 0.1 mm 1 mps 730 mmHg 57%
    16:00 +32°C° 0.1 mm 1 mps 729 mmHg 61%
    17:00 +30°C° 0.5 mm 1 mps 730 mmHg 69%
    18:00 +28°C° 0.5 mm 1 mps 730 mmHg 77%
    19:00 +26°C° 0.5 mm 1 mps 730 mmHg 85%
    20:00 +26°C° 0.1 mm 1 mps 731 mmHg 86%
    21:00 +26°C° 0.1 mm 1 mps 731 mmHg 88%
    22:00 +25°C° 0.1 mm 1 mps 731 mmHg 90%
    23:00 +25°C° 0 mm 1 mps 731 mmHg 91%

    3 June, Wednesday

    Time Temperature Precipitation Wind Pressure Humidity
    00:00 +25°C° 0 mm 1 mps 730 mmHg 91%
    01:00 +25°C° 0 mm 1 mps 730 mmHg 92%
    02:00 +24°C° 0 mm 1 mps 730 mmHg 92%
    03:00 +24°C° 0 mm 1 mps 730 mmHg 93%
    04:00 +24°C° 0 mm 1 mps 730 mmHg 93%
    05:00 +22°C° 0.1 mm 0 mps 730 mmHg 92%
    06:00 +23°C° 0.1 mm 0 mps 731 mmHg 91%
    07:00 +23°C° 0.1 mm 0 mps 731 mmHg 89%
    08:00 +28°C° 0 mm 1 mps 731 mmHg 79%
    09:00 +30°C° 0 mm 1 mps 732 mmHg 69%
    10:00 +32°C° 0 mm 1 mps 732 mmHg 59%
    11:00 +34°C° 0.1 mm 1 mps 731 mmHg 55%
    12:00 +35°C° 0.1 mm 1 mps 730 mmHg 50%
    13:00 +36°C° 0.1 mm 1 mps 730 mmHg 46%
    14:00 +35°C° 0.3 mm 1 mps 729 mmHg 50%
    15:00 +33°C° 0.3 mm 1 mps 729 mmHg 54%
    16:00 +32°C° 0.3 mm 1 mps 729 mmHg 59%
    17:00 +30°C° 0.5 mm 1 mps 729 mmHg 67%
    18:00 +28°C° 0.5 mm 1 mps 729 mmHg 76%
    19:00 +26°C° 0.5 mm 1 mps 730 mmHg 85%
    20:00 +26°C° 0.7 mm 1 mps 730 mmHg 87%
    21:00 +26°C° 0.7 mm 1 mps 730 mmHg 89%
    22:00 +23°C° 0.7 mm 0 mps 731 mmHg 91%
    23:00 +25°C° 0.4 mm 1 mps 731 mmHg 93%

    4 June, Thursday

    Time Temperature Precipitation Wind Pressure Humidity
    00:00 +25°C° 0.4 mm 1 mps 730 mmHg 94%
    01:00 +24°C° 0.4 mm 1 mps 730 mmHg 95%
    02:00 +24°C° 0 mm 1 mps 730 mmHg 96%
    03:00 +24°C° 0 mm 1 mps 730 mmHg 96%
    04:00 +24°C° 0 mm 1 mps 730 mmHg 97%
    05:00 +24°C° 0 mm 1 mps 731 mmHg 96%
    06:00 +25°C° 0 mm 1 mps 731 mmHg 94%
    07:00 +25°C° 0 mm 1 mps 732 mmHg 93%
    08:00 +26°C° 0.1 mm 1 mps 732 mmHg 92%
    09:00 +26°C° 0.1 mm 2 mps 733 mmHg 90%
    10:00 +26°C° 0.1 mm 2 mps 733 mmHg 89%
    11:00 +27°C° 0 mm 2 mps 732 mmHg 82%
    12:00 +29°C° 0 mm 2 mps 732 mmHg 75%
    13:00 +30°C° 0 mm 2 mps 731 mmHg 69%
    14:00 +30°C° 0 mm 2 mps 731 mmHg 67%
    15:00 +31°C° 0 mm 1 mps 730 mmHg 64%
    16:00 +31°C° 0 mm 1 mps 730 mmHg 62%
    17:00 +30°C° 0 mm 1 mps 730 mmHg 70%
    18:00 +28°C° 0 mm 1 mps 730 mmHg 77%
    19:00 +26°C° 0 mm 1 mps 731 mmHg 85%
    20:00 +26°C° 0 mm 1 mps 731 mmHg 87%
    21:00 +26°C° 0 mm 1 mps 731 mmHg 88%
    22:00 +25°C° 0 mm 1 mps 731 mmHg 90%
    23:00 +25°C° 0 mm 1 mps 731 mmHg 91%
    Show more